Location: Bavegemberg
(50.9500°N, 3.8833°E)
Time: 06:46:20
(UTC+00:00)

PSLV R/B - Pass Details

Date: 23 May 2024
Orbit: 591 x 691 km, 97.9° (Epoch: 19 June)

Event Time Altitude Azimuth Distance (km) Brightness Sun altitude
Rises 00:18:04 0° 9° (N) 3,032 8.9 -18.0°
Reaches altitude 10° 00:20:25 10° 2° (N) 2,099 7.5 -17.9°
Maximum altitude 00:24:43 42° 293° (WNW) 931 4.5 -17.8°
Enters shadow 00:26:55 24° 237° (WSW) 1,328 4.9 -17.7°
